Regional Weather Roundup
Issued by NWS Austin/San Antonio, TX

Current Version | Previous Version | Text Only | Print | Product List | Glossary On
Versions: 1 2 3 4 5 6 7 8 9 10 11 12 13 14 15 16 17 18 19 20 21 22 23 24 25 26 27 28 29 30 31 32 33 34 35 36 37 38 39 40 41 42 43 44 45 46 47 48 49 50
000
ASUS44 KEWX 051811
RWREWX
SOUTH TEXAS REGIONAL WEATHER ROUNDUP
NATIONAL WEATHER SERVICE AUSTIN/SAN ANTONIO TX
100 PM CDT SUN JUL 05 2020

NOTE: "FAIR" INDICATED FEW OR NO CLOUDS BELOW 12,000 FEET WITH NO
SIGNIFICANT WEATHER AND/OR OBSTRUCTIONS TO VISIBILITY.

* - THESE STATIONS ARE NOT NWS OR FAA STATIONS...AND ARE NOT SUBJECT
    TO NWS AND FAA QUALITY CONTROL.

TXZ171-172-183>190-051900-
TEXAS HILL COUNTRY AND EDWARDS PLATEAU

CITY           SKY/WX    TMP DP  RH WIND       PRES   REMARKS
JUNCTION       SUNNY     99  63  30 VRB3      29.93S HX 101
6HR MIN TEMP:  72; 6HR MAX TEMP:  99;

*LLANO         SUNNY     97  63  32 S5        29.93S HX  98
BURNET         SUNNY     95  62  33 VRB5      29.93F HX  96
6HR MIN TEMP:  75; 6HR MAX TEMP:  95;

*HORSESHOE BAY SUNNY     99  61  28 NE6       29.90F HX  99
*LAGO VISTA    MOSUNNY   95  63  33 SE10G17   29.92F HX  96
6HR MIN TEMP:  77; 6HR MAX TEMP:  95;

*KERRVILLE     SUNNY     94  62  34 S7        29.94S HX  95
6HR MIN TEMP:  73; 6HR MAX TEMP:  94;

*FREDERICKSBRG SUNNY     93  59  31 S3        29.94F HX  92
6HR MIN TEMP:  71; 6HR MAX TEMP:  93;

*ROCKSPRINGS   SUNNY     95  59  30 S10G16    30.00F HX  94
*BOERNE        MOSUNNY   90  66  45 S8        29.94S HX  92
*CASTROVILLE   MOSUNNY   96  64  35 MISG      29.92S HX  98
HONDO          SUNNY     95  70  44 S9G17     29.90F HX 101
6HR MIN TEMP:  71; 6HR MAX TEMP:  95;

*UVALDE          N/A     96  70  43 S9        29.91F HX 102
6HR MIN TEMP:  72; 6HR MAX TEMP:  96;

DEL RIO        SUNNY    100  65  31 SE9G21    29.85F HX 103
6HR MIN TEMP:  80; 6HR MAX TEMP: 101;

*LAUGHLIN AFB  SUNNY     99  63  30 SE12G18   29.86F HX 101
6HR MIN TEMP:  77; 6HR MAX TEMP:  99;

*SPOFFORD      NOT AVBL
*EAGLE PASS    NOT AVBL
CARRIZO SPRGS  SUNNY     99  66  34 S8        29.86S HX 102
$$

TXZ173-191>194-202-209-217>225-228-051900-
CENTRAL AND SOUTH CENTRAL TEXAS

CITY           SKY/WX    TMP DP  RH WIND       PRES   REMARKS
GEORGETOWN     MOSUNNY   94  66  39 VRB3      29.91F HX  97
6HR MIN TEMP:  77; 6HR MAX TEMP:  95;

*TAYLOR        MOSUNNY   92  70  47 S6        29.90F HX  97
6HR MIN TEMP:  74; 6HR MAX TEMP:  93;

AUSTIN/BERGSTM MOSUNNY   92  70  48 S10G16    29.89S HX  97
6HR MIN TEMP:  74; 6HR MAX TEMP:  93;

AUSTIN/MABRY   MOSUNNY   94  69  44 SE6       29.90F HX  99
6HR MIN TEMP:  76; 6HR MAX TEMP:  95;

*PFLUGERVILLE  MOSUNNY   91  70  49 SE6       29.91F HX  97
SAN MARCOS     MOSUNNY   94  69  44 S8        29.90F HX  99
6HR MIN TEMP:  73; 6HR MAX TEMP:  94;

NEW BRAUNFELS  MOSUNNY   96  67  38 SW12G17   29.89S HX 100
6HR MIN TEMP:  74; 6HR MAX TEMP:  96; 6HR PCP: TRACE;

*RANDOLPH AFB  MOSUNNY   94  65  38 SW12G17   29.90F HX  97
6HR MIN TEMP:  75; 6HR MAX TEMP:  94;

*SEGUIN        MOSUNNY   94  66  40 SE5       29.93F HX  96
6HR MIN TEMP:  72; 6HR MAX TEMP:  94;

SAN ANTONIO    PTSUNNY   93  70  46 S12       29.90F HX  99
6HR MIN TEMP:  76; 6HR MAX TEMP:  94;

STINSON FIELD  MOSUNNY   93  69  45 SW8       29.88F HX  98
6HR MIN TEMP:  71; 6HR MAX TEMP:  93;

*KELLY FIELD   MOSUNNY   93  69  45 CALM      29.89S HX  98
6HR MIN TEMP:  73; 6HR MAX TEMP:  93;

*PLEASANTON    MOSUNNY   93  73  52 S8        29.89F HX 102
6HR MIN TEMP:  73; 6HR MAX TEMP:  94;

*KENEDY        MOSUNNY   92  73  53 S10       29.89F HX 100
6HR MIN TEMP:  76; 6HR MAX TEMP:  92;

*LA GRANGE     CLOUDY    92  72  51 S6        29.88S HX 100
6HR MIN TEMP:  77; 6HR MAX TEMP:  94;

*GIDDINGS      CLOUDY    93  69  44 S3        29.92S HX  98
6HR MIN TEMP:  74; 6HR MAX TEMP:  93;

*GONZALES      CLOUDY    92  72  51 S3        29.90S HX  99
6HR MIN TEMP:  76; 6HR MAX TEMP:  92;

$$

TXZ163>164-176>182-195>201-210>213-226-227-235-051900-
SOUTHEAST TEXAS

CITY           SKY/WX    TMP DP  RH WIND       PRES   REMARKS
COLLEGE STN    CLOUDY    88  73  61 CALM      29.91F HX  95
6HR MIN TEMP:  76; 6HR MAX TEMP:  89;

*BRYAN         CLOUDY    87  74  67 CALM      29.92F HX  95
6HR MIN TEMP:  77; 6HR MAX TEMP:  88;

*CALDWELL      CLOUDY    89  74  62 N3        29.91F HX  98
6HR MIN TEMP:  74; 6HR MAX TEMP:  89;

*CROCKETT      NOT AVBL
*BRENHAM       CLOUDY    92  74  56 W5        29.91S HX 101
6HR MIN TEMP:  77; 6HR MAX TEMP:  92;

HUNTSVILLE     MOSUNNY   90  73  57 CALM      29.91F HX  98
6HR MIN TEMP:  78; 6HR MAX TEMP:  90;

CONROE         PTSUNNY   90  76  63 NW6       29.92S HX 101
6HR MIN TEMP:  78; 6HR MAX TEMP:  90;

HOUSTON BUSH   PTSUNNY   91  73  55 W8        29.90S HX  99
6HR MIN TEMP:  79; 6HR MAX TEMP:  91;

HOUSTON HOBBY  PTSUNNY   90  73  57 W10       29.90S HX  98
6HR MIN TEMP:  78; 6HR MAX TEMP:  91;

*HOUSTON SW AP MOSUNNY   89  76  66 SW7       29.91S HX 100
6HR MIN TEMP:  73; 6HR MAX TEMP:  89;

PEARLAND       PTSUNNY   90  73  57 W5        29.91S HX  98
6HR MIN TEMP:  77; 6HR MAX TEMP:  91;

HOUSTON HOOKS  MOSUNNY   88  73  61 W9        29.91S HX  95
6HR MIN TEMP:  78; 6HR MAX TEMP:  89;

ELLINGTON FLD  NOT AVBL
SUGAR LAND     PTSUNNY   91  75  59 SW8       29.89F HX 101
6HR MIN TEMP:  76; 6HR MAX TEMP:  91; 6HR PCP: TRACE;

*HOUSTON EXEC  MOSUNNY   90  75  62 W8        29.92S HX 100
*CLEVELAND MUN PTSUNNY   88  72  60 CALM      29.92S HX  94
6HR MIN TEMP:  74; 6HR MAX TEMP:  88;

*WHARTON       MOSUNNY   90  70  51 S10       29.90F HX  95
6HR MIN TEMP:  72; 6HR MAX TEMP:  90;

*COLUMBUS      FAIR      88  74  63 S6        29.91S HX  96
6HR MIN TEMP:  76; 6HR MAX TEMP:  88;

*EAGLE LAKE    CLOUDY    91  78  65 SW8       29.90  HX 104
6HR MIN TEMP:  79; 6HR MAX TEMP:  91;

$$

TXZ214>216-236>238-051900-
THE UPPER TEXAS COAST

CITY           SKY/WX    TMP DP  RH WIND       PRES   REMARKS
*ORANGE        MOSUNNY   89  75  62 CALM      29.92S HX  98
6HR MIN TEMP:  80; 6HR MAX TEMP:  89;

PORT ARTHUR    MOSUNNY   89  75  63 SW5       29.90S HX  99
6HR MIN TEMP:  76; 6HR MAX TEMP:  90;

GALVESTON      MOSUNNY   90  76  63 S22       29.90F HX 101
6HR MIN TEMP:  82; 6HR MAX TEMP:  91;

ANGLETON       MOSUNNY   90  74  59 SW12G17   29.90S HX  99
6HR MIN TEMP:  75; 6HR MAX TEMP:  90;

*BAY CITY      MOSUNNY   91  76  63 SW13      29.90F HX 103
PALACIOS       MOSUNNY   88  76  67 S14       29.90F HX  99
6HR MIN TEMP:  82; 6HR MAX TEMP:  89;

$$

TXZ229>234-239>247-051900-
TEXAS COASTAL BEND AND RIO GRANDE PLAINS

CITY           SKY/WX    TMP DP  RH WIND       PRES   REMARKS
VICTORIA       MOSUNNY   93  73  52 S14       29.89F HX 102
6HR MIN TEMP:  78; 6HR MAX TEMP:  93;

*BEEVILLE      MOSUNNY   92  79  64 SW9G17    29.88F HX 108
6HR MIN TEMP:  78; 6HR MAX TEMP:  92;

ROCKPORT       SUNNY     89  75  63 S12G18    29.89F HX  99
6HR MIN TEMP:  80; 6HR MAX TEMP:  90;

*PORT ARANSAS  MOSUNNY   87  77  73 S15       29.91F HX  99
6HR MIN TEMP:  80; 6HR MAX TEMP:  87;

*PORT LAVACA   MOSUNNY   92  79  66 S12       29.90F HX 108
6HR MIN TEMP:  79; 6HR MAX TEMP:  92;

*INGLESIDE     SUNNY     90  78  67 S15       29.89F HX 105
CORPUS CHRISTI MOSUNNY   91  78  65 S8        29.88F HX 106
6HR MIN TEMP:  74; 6HR MAX TEMP:  91;

CORPUS NAS     SUNNY     89  79  72 S17G24    29.89F HX 104
6HR MIN TEMP:  78; 6HR MAX TEMP:  89;

*ROBSTOWN      SUNNY     94  75  54 SE9G17    29.88F HX 106
6HR MIN TEMP:  74; 6HR MAX TEMP:  94;

ALICE          SUNNY     96  74  48 S14       29.86F HX 107
6HR MIN TEMP:  77; 6HR MAX TEMP:  96; 6HR PCP: TRACE;

KINGSVILLE NAS SUNNY     96  72  45 S16G22    29.87F HX 104
COTULLA        SUNNY     97  70  41 SE8       29.87F HX 103
6HR MIN TEMP:  74; 6HR MAX TEMP:  99;


USA.gov is the U.S. government's official web portal to all federal, state and local government web resources and services.